Location: Clarion
(42.7316°N, 93.7330°W)
Time: 08:50:11
(UTC+00:00)

CSL-04 Debris - Pass Details

Date: 22 April 2026
Orbit: 820 x 838 km, 98.7° (Epoch: 16 May)

Event Time Altitude Azimuth Distance (km) Brightness Sun altitude
Exits shadow 01:59:30 - 163° (SSE) 3,198 6.8 -10.2°
Reaches altitude 10° 02:01:28 10° 163° (SSE) 2,413 6.2 -10.5°
Maximum altitude 02:06:49 87° 77° (ENE) 832 4.1 -11.4°
Drops below altitude 10° 02:12:15 10° 347° (NNW) 2,441 7.2 -12.3°
Sets 02:14:37 0° 347° (NNW) 3,382 8.0 -12.6°
